logo
Search for airport 
image banner adimage banner adimage banner ad
image banner ad

VT70 - North Country Hospital

Located in Newport, United States

ICAO - VT70, IATA -

Data provided by Airmate  

General information

Coordinates: N44°57'22" W72°11'58"
Elevation is 690 feet MSL.
Magnetic variation is -16° East
View others Airports in Vermont

Operational data

Special qualification required
Current time UTC:
Current local time:
Weather at : KEFK - Northeast Kingdom Intl ( 8 km )
METAR: KEFK 232115Z AUTO 32003KT 10SM CLR 24/16 A3010 RMK AO2 T02410162
TAF: KEFK 231739Z 2318/2418 34005KT P6SM VCSH OVC100 FM232100 VRB03KT P6SM FEW027 SCT120 FM241100 VRB03KT P6SM FEW005 SCT020 FM241200 VRB04KT P6SM SCT009 BKN020 FM241400 16007KT P6SM SCT018 BKN200
View NOTAMs / SUP AIP / TFR affecting this airport [VIEW]
Communications frequencies: [VIEW]

Runways:

RWY identifierQFULength (ft)Width (ft)SurfaceLDA (ft)
H15050ASPH/ CONC
5050ASPH/ CONC

Airport contact information

Address: Newport United States

Satellite view of VT70